Home > Weather > Qyzylorda > Past weeks

Flag for Kazakhstan Past Weather in Qyzylorda, Kazakhstan — Yesterday and Last 2 Weeks

Now
79 °F

Sunny.


Feels Like: 79 °F
Forecast: 68 / 93 °F
Wind: 3 mph from Northwest

Location: Kzyl-Orda

Current Time: Jul 30, 2016 at 10:55:59 PM

Latest Report: Jul 30, 2016 at 10:00 PM


Visibility: 10 mi

Pressure: 29.86 "Hg

Humidity: 39%

Dew Point: 52 °F

Location of QyzylordaLocation

Past Weather in Qyzylorda — Graph

°F

Qyzylorda Temperature Yesterday

Maximum temperature yesterday: 86 °F (at 5:30 PM)
Minimum temperature yesterday: 63 °F (at 4:00 AM)
Average temperature yesterday: 75 °F

High & Low Weather Summary for the Past Weeks

 TemperatureHumidityPressure
High99 °F (Jul 16, 3:30 PM)88% (Jul 28, 6:30 AM)29.86 "Hg (Jul 28, 6:30 AM)
Low63 °F (Jul 17, 5:30 AM)13% (Jul 16, 6:30 PM)29.47 "Hg (Jul 19, 4:30 PM)
Average82 °F39%29.67 "Hg
* Reported Jul 15 9:00 PM — Jul 30 9:00 PM, Qyzylorda, Weather by CustomWeather, © 2016

Note: Actual official high and low records may vary slightly from our data, if they occured in-between our weather recording intervals... More about our weather records

Advertising

Qyzylorda Weather History for the Previous 24 Hours

Scroll right to see more
 ConditionsComfort  
Time TempWeatherWind HumidityBarometerVisibility
9:00 PM
Sat, Jul 30
84 °FSunny.3 mph29%29.86 "Hg10 mi
8:00 PM90 °FSunny.8 mph22%29.83 "Hg10 mi
7:30 PM90 °FPassing clouds.8 mph21%29.83 "HgN/A
7:00 PM91 °FPassing clouds.10 mph20%29.83 "HgN/A
6:30 PM91 °FPassing clouds.6 mph21%29.83 "HgN/A
6:00 PM91 °FSunny.8 mph23%29.83 "Hg10 mi
5:30 PM91 °FPassing clouds.10 mph21%29.83 "HgN/A
5:00 PM90 °FPassing clouds.8 mph24%29.83 "HgN/A
4:30 PM91 °FPassing clouds.8 mph21%29.83 "HgN/A
4:00 PM91 °FPassing clouds.8 mph21%29.83 "HgN/A
3:30 PM90 °FPassing clouds.13 mph22%29.86 "HgN/A
3:00 PM90 °FPassing clouds.10 mph22%29.86 "HgN/A
2:30 PM90 °FPassing clouds.10 mph22%29.86 "HgN/A
2:00 PM90 °FPassing clouds.10 mph24%29.86 "HgN/A
1:30 PM88 °FPassing clouds.10 mph24%29.86 "HgN/A
1:00 PM88 °FPassing clouds.6 mph24%29.86 "HgN/A
12:30 PM88 °FPassing clouds.6 mph25%29.86 "HgN/A
12:00 PM86 °FSunny.3 mph27%29.86 "Hg10 mi
11:30 AM86 °FPassing clouds.3 mph27%29.86 "HgN/A
11:00 AM82 °FPassing clouds.3 mph32%29.86 "HgN/A
10:30 AM82 °FPassing clouds.3 mph32%29.86 "HgN/A
10:00 AM81 °FSunny.1 mph34%29.86 "Hg10 mi
9:30 AM77 °FSunny.1 mph42%29.86 "Hg10 mi
9:00 AM72 °FSunny.1 mph47%29.86 "Hg10 mi
8:30 AM70 °FSunny.1 mph50%29.86 "Hg10 mi
8:00 AM66 °FPassing clouds.3 mph52%29.83 "HgN/A
7:30 AM64 °FPassing clouds.3 mph56%29.83 "HgN/A
7:00 AM63 °FClear.3 mph64%29.83 "Hg10 mi
6:30 AM63 °FPassing clouds.3 mph59%29.83 "HgN/A
6:00 AM63 °FClear.3 mph64%29.80 "Hg10 mi
5:30 AM64 °FClear.3 mph60%29.80 "Hg10 mi
5:00 AM63 °FClear.3 mph59%29.80 "Hg10 mi
4:00 AM63 °FClear.3 mph64%29.80 "Hg10 mi
3:00 AM63 °FClear.6 mph64%29.80 "Hg10 mi
2:00 AM64 °FClear.3 mph56%29.80 "Hg10 mi
1:00 AM68 °FClear.3 mph49%29.80 "Hg10 mi
12:00 AM68 °FClear.3 mph53%29.83 "Hg10 mi
11:00 PM
Fri, Jul 29
72 °FClear.3 mph50%29.83 "Hg10 mi
10:00 PM73 °FSunny.3 mph47%29.80 "Hg10 mi
Weather by CustomWeather, © 2016

See weather overviewHow to use our weather pages